982  
ASUS43 KDTX 280001  
RWRMI  
MICHIGAN HOURLY REGIONAL WEATHER ROUNDUP  
NATIONAL WEATHER SERVICE DETROIT/PONTIAC MI  
800 PM EDT TUE SEP 27 2022  
 
NOTE: "FAIR" INDICATES FEW OR NO CLOUDS BELOW 12,000 FEET WITH NO  
SIGNIFICANT WEATHER AND/OR TO VISIBILITY
.  
 
MIZ047>049-052>055-059>063-066>070-074>076-081>083-280100-  
SOUTHEAST LOWER MICHIGAN  
 
CITY SKY/WX TMP DP RH WIND PRES REMARKS
 
ADRIAN CLOUDY 52 45 77 N8 30.09R  
6HR MIN TEMP: 51; 6HR MAX TEMP: 60; 6HR PCP: TRACE;  
 
ALMA CLOUDY 53 50 90 NW7 30.09R  
6HR MIN TEMP: 52; 6HR MAX TEMP: 54;  
 
ANN ARBOR CLOUDY 52 42 69 W8 30.06R  
BAD AXE CLOUDY 53 50 90 NW9 30.02R  
6HR MIN TEMP: 53; 6HR MAX TEMP: 56;  
 
CARO CLOUDY 54 52 92 W5 30.04R  
DETROIT CITY CLOUDY 56 44 64 NW8 30.04R  
6HR MIN TEMP: 56; 6HR MAX TEMP: 63;  
 
DETROIT CLOUDY 55 43 63 NW9 30.06R  
6HR MIN TEMP: 55; 6HR MAX TEMP: 64;  
 
FLINT CLOUDY 51 49 92 W9 30.06R  
6HR MIN TEMP: 51; 6HR MAX TEMP: 57; 6HR PCP: 0.01;  
 
GROSSE ILE CLOUDY 55 37 50 NW13 30.04R  
6HR MIN TEMP: 55; 6HR MAX TEMP: 64;  
 
HILLSDALE CLOUDY 49 44 84 NW13 30.09R  
6HR MIN TEMP: 48; 6HR MAX TEMP: 56; 6HR PCP: 0.03;  
 
HOWELL LGT RAIN 51 49 92 W9 30.06R  
6HR MIN TEMP: 51; 6HR MAX TEMP: 59;  
 
 
CITY SKY/WX TMP DP RH WIND PRES REMARKS
 
JACKSON CLOUDY 50 47 89 W7 30.09R  
6HR MIN TEMP: 50; 6HR MAX TEMP: 59; 6HR PCP: TRACE;  
 
LAMBERTVILLE CLOUDY 55 42 61 NW8 30.07R  
6HR MIN TEMP: 55; 6HR MAX TEMP: 62;  
 
LANSING CLOUDY 51 48 89 NW12 30.09R  
6HR MIN TEMP: 51; 6HR MAX TEMP: 59; 6HR PCP: 0.02;  
 
LAPEER LGT RAIN 53 49 87 W7 30.04R  
6HR MIN TEMP: 53; 6HR MAX TEMP: 55;  
 
MASON CLOUDY 53 48 83 NW9 30.08R  
6HR MIN TEMP: 53; 6HR MAX TEMP: 61;  
 
MONROE CLOUDY 55 44 66 NW12G18 30.06R  
6HR MIN TEMP: 55; 6HR MAX TEMP: 63;  
 
PONTIAC LGT RAIN 51 47 86 W7 30.05R  
6HR MIN TEMP: 50; 6HR MAX TEMP: 58; 6HR PCP: 0.04;  
 
PORT HURON RAIN 52 48 87 W3 30.02R  
TRI CITIES CLOUDY 53 48 83 NW9 30.07R  
6HR MIN TEMP: 52; 6HR MAX TEMP: 54; 6HR PCP: 0.03;  
 
MIDLAND CLOUDY 53 49 86 NW9 30.07R  
6HR MIN TEMP: 53; 6HR MAX TEMP: 56; 6HR PCP: 0.07;  
 
TROY CLOUDY 54 46 74 W7G16 30.06R  
SAGINAW HB CLOUDY 53 50 89 W7 30.05R  
6HR MIN TEMP: 53; 6HR MAX TEMP: 54;  
 

 
MIZ043>046-050>051-056>058-064>065-071>073-077>080-280100-  
SOUTHWEST LOWER MICHIGAN  
 
CITY SKY/WX TMP DP RH WIND PRES REMARKS
 
BATTLE CREEK LGT RAIN 51 48 89 NW9 30.12R  
6HR MIN TEMP: 51; 6HR MAX TEMP: 58; 6HR PCP: 0.03;  
 
BENTON HARBOR LGT RAIN 53 47 79 NW8 30.16R  
6HR MIN TEMP: 51; 6HR MAX TEMP: 58; 6HR PCP: 0.06;  
 
BIG RAPIDS CLOUDY 51 48 89 NW10G16 30.12R  
6HR MIN TEMP: 51; 6HR MAX TEMP: 54; 6HR PCP: 0.01;  
 
COLDWATER CLOUDY 50 45 83 NW6 30.12R  
6HR MIN TEMP: 50; 6HR MAX TEMP: 58;  
 
FREMONT CLOUDY 52 46 80 N10G17 30.15R  
6HR MIN TEMP: 52; 6HR MAX TEMP: 56;  
 
HOLLAND CLOUDY 51 47 86 NW8G22 30.16R  
6HR MIN TEMP: 51; 6HR MAX TEMP: 57;  
 
GRAND RAPIDS CLOUDY 51 48 89 NW12 30.13R  
6HR MIN TEMP: 51; 6HR MAX TEMP: 56; 6HR PCP: 0.04;  
 
IONIA CLOUDY 51 51 100 NW8 30.10R  
6HR MIN TEMP: 51; 6HR MAX TEMP: 58; 6HR PCP: 0.01;  
 
KALAMAZOO LGT RAIN 51 46 83 NW13G23 30.14R  
6HR MIN TEMP: 51; 6HR MAX TEMP: 59; 6HR PCP: TRACE;  
 
LUDINGTON DRIZZLE 50 46 86 N13 30.17R  
6HR MIN TEMP: 50; 6HR MAX TEMP: 53; 6HR PCP: 0.08;  
 
MARSHALL CLOUDY 50 47 87 W9 30.10R  
6HR MIN TEMP: 50; 6HR MAX TEMP: 58;  
 
MOUNT PLEASANT MOCLDY 50 49 97 NW5 30.08R  
6HR MIN TEMP: 50; 6HR MAX TEMP: 55; 6HR PCP: 0.11;  
 
MUSKEGON CLOUDY 53 47 79 NW9 30.16R  
6HR MIN TEMP: 53; 6HR MAX TEMP: 58; 6HR PCP: TRACE;  
 
SOUTH HAVEN HVY RAIN 53 48 83 NW12G17 30.16R  

 
MIZ016>042-280100-  
NORTHERN LOWER MICHIGAN  
 
CITY SKY/WX TMP DP RH WIND PRES REMARKS
 
ALPENA CLOUDY 50 44 80 NW13G24 30.06R  
6HR MIN TEMP: 50; 6HR MAX TEMP: 57; 6HR PCP: TRACE;  
 
BEAVER ISLAND CLOUDY 49 44 81 N12G21 30.17R  
6HR MIN TEMP: 49; 6HR MAX TEMP: 55;  
 
BELLAIRE CLOUDY 49 47 91 NW7 30.14R  
6HR MIN TEMP: 49; 6HR MAX TEMP: 57;  
 
CADILLAC CLOUDY 47 45 91 NW10G18 30.11R  
6HR MIN TEMP: 47; 6HR MAX TEMP: 52;  
 
CHARLEVOIX CLOUDY 50 44 80 N16G25 30.14R  
6HR MIN TEMP: 49; 6HR MAX TEMP: 55;  
 
FRANKFORT CLOUDY 50 43 78 N12G21 30.17R  
GAYLORD CLOUDY 48 43 82 NW8 30.09R  
6HR MIN TEMP: 48; 6HR MAX TEMP: 54; 6HR PCP: TRACE;  
 
HARBOR SPRINGS CLOUDY 49 44 83 N3 30.12R  
HOUGHTON LAKE CLOUDY 48 45 89 NW8 30.10R  
6HR MIN TEMP: 48; 6HR MAX TEMP: 54; 6HR PCP: 0.05;  
 
MANISTEE CLOUDY 48 45 89 N13G18 30.17R  
OSCODA CLOUDY 53 47 79 NW10 30.04R  
6HR MIN TEMP: 53; 6HR MAX TEMP: 59;  
 
PELLSTON LGT RAIN 49 43 80 N14 30.12R  
6HR MIN TEMP: 49; 6HR MAX TEMP: 59; 6HR PCP: TRACE;  
 
ROGERS CITY CLOUDY 52 43 71 N12G22 30.09R  
TRAVERSE CITY DRIZZLE 51 45 79 N9G22 30.13R  
6HR MIN TEMP: 51; 6HR MAX TEMP: 56; 6HR PCP: 0.01;  
 

 
MIZ007>008-015-280100-  
EASTERN UPPER MICHIGAN  
 
CITY SKY/WX TMP DP RH WIND PRES REMARKS
 
KINROSS LGT RAIN 45 42 89 N14 30.13R  
6HR MIN TEMP: 45; 6HR MAX TEMP: 55; 6HR PCP: TRACE;  
 
MACKINAC ISLAN CLOUDY 48 42 80 N15G24 30.12R  
6HR MIN TEMP: 48; 6HR MAX TEMP: 55;  
 
NEWBERRY CLOUDY 44 41 89 N9G16 30.17R  
6HR MIN TEMP: 44; 6HR MAX TEMP: 49;  
 
S. S. MARIE LGT RAIN 46 43 89 N6 30.13R  
6HR MIN TEMP: 46; 6HR MAX TEMP: 55; 6HR PCP: 0.01;  
 

 
MIZ004>006-011>014-085-280100-  
CENTRAL UPPER MICHIGAN  
 
CITY SKY/WX TMP DP RH WIND PRES REMARKS
 
MANISTIQUE CLOUDY 45 39 78 N14G24 30.19R  
6HR MIN TEMP: 45; 6HR MAX TEMP: 50;  
 
ESCANABA CLOUDY 46 39 76 N9G20 30.24R  
6HR MIN TEMP: 46; 6HR MAX TEMP: 52;  
 
MENOMINEE CLOUDY 48 40 73 N13G21 30.25R  
6HR MIN TEMP: 48; 6HR MAX TEMP: 52;  
 
SAWYER-GWINN CLOUDY 41 37 87 N10G17 30.24R  
MUNISING N/A 49 42 77 N21G29 30.22R  
6HR MIN TEMP: 48; 6HR MAX TEMP: 49;  
 

 
MIZ001>003-009>011-084-280100-  
WESTERN UPPER MICHIGAN  
 
CITY SKY/WX TMP DP RH WIND PRES REMARKS
 
IRON MOUNTAIN CLOUDY 44 36 73 N15G25 30.25R  
6HR MIN TEMP: 44; 6HR MAX TEMP: 50; 6HR PCP: TRACE;  
 
HOUGHTON MOCLDY 43 35 73 N7 30.29R  
6HR MIN TEMP: 43; 6HR MAX TEMP: 47; 6HR PCP: TRACE;  
 
COPPER HARBOR N/A 48 36 63 NE17 30.28R  
6HR MIN TEMP: 47; 6HR MAX TEMP: 48;  
 
IRONWOOD CLEAR 38 35 89 CALM 30.33R  
6HR MIN TEMP: 38; 6HR MAX TEMP: 46;  
 

 
 
ABBREVIATIONS USED IN REMARKS  
TC - TEMPERATURE IN CELSIUS  
WCI - WIND CHILL INDEX  
HX - HEAT INDEX  
VSB - VISIBILITY  
 
 
 
CLICK HERE TO GO TO PREVIOUS BULLETINS.

The Nexlab MI Page Main Text Page